SCP
0 0 0 0 0 0 0 0 0 0 0 0 0 0 0 0 0 0 0 0 0 0 0 0 0 0 0 0 0 0 0 0 0 0 0 0 0 0
0 0 0 0 0 0 0 0 0 0 0 0 0 0 0 0 0 0 0 0 0 0 0 0 0 0 0 0 0 0 0 0 0 0 0 0 0 0
0 0 0 0 0 0 0 0 0 0 0 0 0 0 0 0 0 0 0 0 0 0 0 0 0 0 0 0 0 0 0 0 0 0 0 0 0 0
0 0 0 0 0 0 0 0 0 0 0 0 0 0 0 0 0 0 0 0 0 0 0 0 0 0 0 0 0 0 0 0 0 0 0 0 0 0
0 0 0 0 0 0 0 0 0 0 0 0 0 0 0 0 0 0 0 0 0 0 0 0 0 0 0 0 0 0 0 0 0 0 0 0 0 0
0 0 0 0 0 0 0 0 0 0 0 0 0 0 0 0 0 0 0 0 0 0 0 0 0 0 0 0 0 0 0 0 0 0 0 0 0 0
0 0 0 0 0 0 0 0 0 0 0 0 0 0 0 0 0 0 0 0 0 0 0 0 0 0 0 0 0 0 0 0 0 0 0 0 0 0
0 0 0 0 0 0 0 0 0 0 0 0 0 0 0 0 0 0 0 0 0 0 0 0 0 0 0 0 0 0 0 0 0 0 0 0 0 0
0 0 0 0 0 0 0 0 0 0 0 0 0 0 0 0 0 0 0 0 0 0 0 0 0 0 0 0 0 0 0 0 0 0 0 0 0 0
0 0 0 0 0 0 0 0 0 0 0 0 0 0 0 0 0 0 0 0 0 0 0 0 0 0 0 0 0 0 0 0 0 0 0 0 0 0
0 0 0 0 0 0 0 0 0 0 0 0 0 0 0 0 0 0 0 0 0 0 0 0 0 0 0 0 0 0 0 0 0 0 0 0 0 0
0 0 0 0 0 0 0 0 0 0 0 0 0 0 0 0 0 0 0 0 0 0 0 0 0 0 0 0 0 0 0 0 0 0 0 0 0 0
0 0 0 0 0 0 0 0 0 0 0 0 0 0 0 0 0 0 0 0 0 0 0 0 0 0 0 0 0 0 0 0 0 0 0 0 0 0
0 0 0 0 0 0 0 0 0 0 0 0 0 0 0 0 0 0 0 0 0 0 0 0 0 0 0 0 0 0 0 0 0 0 0 0 0 0
0 0 0 0 0 0 0 0 0 0 0 0 0 0 0 0 0 0 0 0 0 0 0 0 0 0 0 0 0 0 0 0 0 0 0 0 0 0
0 0 0 0 0 0 0 0 0 0 0 0 0 0 0 0 0 0 0 0 0 0 0 0 0 0 0 0 0 0 0 0 0 0 0 0 0 0
0 0 0 0 0 0 0 0 0 0 0 0 0 0 0 0 0 0 0 0 0 0 0 0 0 0 0 0 0 0 0 0 0 0 0 0 0 0
0 0 0 0 0 0 0 0 0 0 0 0 0 0 0 0 0 0 0 0 0 0 0 0 0 0 0 0 0 0 0 0 0 0 0 0 0 0
0 0 0 0 0 0 0 0 0 0 0 0 0 0 0 0 0 0 0 0 0 0 0 0 0 0 0 0 0 0 0 0 0 0 0 0 0 0
0 0 0 0 0 0 0 0 0 0 0 0 0 0 0 0 0 0 0 0 0 0 0 0 0 0 0 0 0 0 0 0 0 0 0 0 0 0
0 0 0 0 0 0 0 0 0 0 0 0 0 0 0 0 0 0 0 0 0 0 0 0 0 0 0 0 0 0 0 0 0 0 0 0 0 0
0 0 0 0 0 0 0 0 0 0 0 0 0 0 0 0 0 0 0 0 0 0 0 0 0 0 0 0 0 0 0 0 0 0 0 0 0 0
0 0 0 0 0 0 0 0 0 0 0 0 0 0 0 0 0 0 0 0 0 0 0 0 0 0 0 0 0 0 0 0 0 0 0 0 0 0
Wind_Speed
4 5 4 3 4 4 4 4 4 4 5 5 4 4 4 4 8 8 8 16 18 18 18 17 16 15 14 14 14 13 13 13 13 13 13 13 13 12
4 5 4 3 3 3 4 4 4 5 4 3 4 4 4 5 9 8 8 16 19 18 18 17 17 16 15 14 14 14 13 13 13 14 13 12 12 12
6 5 5 4 3 3 3 3 4 4 5 4 3 3 5 5 5 6 6 7 9 17 18 18 17 17 16 15 15 14 14 14 14 15 14 13 12 12
6 5 5 4 4 3 3 4 4 4 5 5 3 3 5 5 5 6 5 6 6 14 18 18 17 17 16 16 15 15 15 15 15 15 15 15 14 13
6 5 5 5 4 3 3 3 3 4 3 4 4 3 3 3 4 4 4 4 5 9 15 16 16 17 17 16 16 16 16 16 15 15 15 14 14 14
7 6 5 3 3 3 3 3 3 3 3 3 4 3 3 3 4 3 3 4 4 4 7 9 12 16 17 17 17 17 17 16 16 15 15 15 15 14
7 6 5 4 4 3 3 3 3 3 3 3 3 3 3 3 4 4 4 3 4 4 4 6 7 7 10 14 17 19 18 18 17 16 16 15 15 15
7 6 6 5 4 5 7 7 6 4 4 3 3 4 5 5 4 4 4 4 4 4 5 5 6 8 8 8 14 19 19 19 18 17 17 16 15 16
6 5 6 6 5 4 5 6 7 9 9 5 5 5 5 4 5 5 5 5 4 4 5 5 6 7 6 9 18 20 21 20 20 18 18 18 17 16
6 4 4 4 4 4 5 6 5 5 5 5 6 6 4 4 4 5 5 4 2 2 4 4 4 4 5 7 17 20 20 20 20 19 19 18 17 17
5 4 4 3 4 6 5 6 5 5 5 6 7 7 7 7 4 3 4 4 3 2 2 3 3 3 3 5 10 18 19 19 19 20 20 19 18 16
5 4 3 3 5 6 4 5 5 5 5 5 5 6 6 6 8 7 6 5 3 3 3 4 4 4 2 1 4 9 11 15 18 19 20 20 19 11
4 4 2 4 5 7 6 4 6 6 5 5 4 3 3 3 3 4 4 5 5 3 4 4 4 4 4 3 2 5 8 8 9 11 16 20 18 12
4 4 3 6 8 9 6 7 9 7 4 3 3 2 2 2 2 2 3 3 3 4 6 5 4 5 6 5 3 4 5 7 7 8 8 13 12 10
5 8 10 12 11 8 7 8 6 3 2 2 2 2 1 0 1 2 2 3 4 4 5 4 5 5 5 5 6 6 5 5 6 8 8 9 7 6
5 6 9 11 8 8 8 5 3 2 2 2 2 1 1 1 1 1 2 2 3 2 3 4 6 7 5 6 7 7 5 7 8 7 8 7 6 6
3 4 4 4 3 3 3 3 2 1 1 1 1 1 0 1 1 1 1 2 3 3 3 3 4 4 4 6 7 7 6 6 7 8 7 7 7 7
2 4 5 5 4 4 3 3 2 2 2 1 1 1 1 1 1 1 2 2 3 4 4 4 5 5 4 3 3 8 6 6 7 8 6 6 7 7
3 5 5 5 5 4 3 3 3 3 3 2 2 2 1 2 2 2 2 3 3 3 4 4 5 5 5 4 2 3 6 7 7 7 6 5 6 7
5 6 6 6 5 4 4 3 3 3 3 3 3 2 2 2 2 3 3 4 4 4 4 3 4 4 5 6 5 4 7 8 8 8 6 4 3 3
6 6 6 6 5 4 4 4 4 4 4 4 3 4 3 3 3 3 3 5 4 4 5 4 4 4 3 4 5 4 4 4 6 6 8 6 4 4
6 6 6 5 5 4 4 4 4 4 4 4 4 4 4 4 4 4 4 5 4 4 4 3 4 4 3 4 5 6 5 3 3 3 5 6 6 7
7 6 6 5 5 4 4 5 5 5 5 5 5 5 5 4 4 4 5 5 4 5 5 4 4 3 3 3 5 4 6 6 4 3 2 4 6 7
Wind_Direction
295 285 268 252 245 240 232 216 206 220 232 225 219 219 209 195 173 187 181 193 192 192 193 194 195 196 198 200 201 200 199 196 190 185 186 187 186 184
295 285 282 265 254 246 241 235 218 211 233 232 216 215 206 204 183 190 194 190 194 194 195 195 194 194 196 197 196 194 192 188 183 181 181 183 183 177
315 311 306 292 273 259 250 243 235 217 231 248 233 222 206 209 193 197 198 186 195 198 197 196 195 195 194 193 192 189 187 183 181 179 179 179 176 173
314 315 311 305 291 276 264 253 245 231 221 237 237 220 216 207 198 200 200 196 191 197 198 197 196 194 193 191 188 186 183 181 178 177 177 177 174 169
314 314 311 313 308 301 291 273 260 254 237 233 237 222 215 202 199 206 205 199 201 193 196 198 197 194 191 188 185 183 181 178 175 174 173 172 169 169
316 310 308 314 315 319 308 302 292 274 259 245 238 227 214 200 188 196 206 203 204 189 191 194 196 195 191 187 184 180 177 173 171 169 167 165 165 167
313 312 316 309 297 289 294 305 310 287 267 252 244 234 216 196 201 194 200 198 208 185 176 186 185 192 193 190 185 179 174 170 167 166 165 164 164 164
310 315 313 293 295 287 274 268 261 262 263 256 254 242 231 216 200 194 193 190 209 192 184 193 182 189 190 190 184 177 173 170 166 164 163 163 162 161
300 305 313 321 342 335 318 294 271 255 244 245 255 252 246 228 204 200 202 200 206 184 177 200 189 193 185 183 176 174 171 169 166 164 164 163 161 160
294 299 307 324 3 357 328 310 292 278 256 241 244 254 254 244 215 204 201 206 202 187 174 189 184 185 174 175 175 172 169 168 166 165 165 163 160 158
312 330 333 333 357 351 321 305 305 300 285 267 259 260 258 246 216 183 184 184 197 197 172 165 157 141 152 172 172 169 165 164 165 165 164 160 155 153
317 319 336 343 340 338 316 307 308 309 316 300 276 262 251 232 216 205 194 187 177 184 177 159 147 134 132 130 162 167 163 162 162 162 160 157 152 149
311 314 321 340 328 319 311 291 288 298 299 294 280 265 243 220 205 200 197 185 174 180 172 150 144 139 136 126 126 160 159 156 157 158 159 158 157 154
288 295 304 317 312 306 299 289 296 301 285 286 287 274 250 223 190 177 171 165 163 164 165 155 145 156 143 135 136 137 143 148 149 151 155 158 158 158
269 285 294 294 297 294 283 288 296 286 284 287 291 288 289 201 132 124 116 117 111 128 150 154 143 148 143 142 144 143 135 143 151 152 156 163 167 163
271 290 293 279 269 269 280 279 265 260 270 272 275 289 317 93 115 124 134 135 127 117 126 141 145 146 137 135 143 147 145 153 159 158 157 162 171 177
327 299 287 284 270 254 254 251 251 277 277 279 270 278 233 129 120 124 142 146 148 151 141 124 110 106 117 140 148 152 149 149 156 158 158 168 185 190
295 278 280 278 273 266 254 248 232 233 232 229 226 229 209 175 160 155 154 153 149 150 148 143 132 115 93 53 126 154 154 154 156 161 159 167 187 196
245 259 264 266 264 261 250 239 228 218 207 197 203 213 200 188 180 170 161 154 150 146 147 150 152 146 148 150 159 166 158 157 160 168 174 173 186 194
231 245 253 254 255 253 247 240 229 212 198 196 197 200 197 194 184 177 168 161 155 147 148 159 170 167 164 159 158 172 176 163 166 173 177 174 161 167
244 242 243 241 243 244 241 234 226 212 203 197 194 194 196 189 186 177 164 161 154 156 167 176 175 155 123 117 123 138 160 174 169 169 169 166 168 174
249 253 252 245 239 239 236 231 230 220 210 205 200 196 194 188 183 174 167 169 171 164 162 155 151 154 157 157 159 155 153 144 118 130 170 174 168 187
248 248 245 242 235 234 234 231 230 229 217 207 202 197 192 189 185 179 174 175 173 167 155 152 157 163 171 165 161 158 161 163 158 158 198 191 165 147